Location: Byszew
(52.1813°N, 19.2693°E)
Time: 14:40:38
(UTC+00:00)

SL-08 RB Rocket - Pass Details

Date: 03 March 2021
Orbit: 647 x 683 km, 97.8° (Epoch: 12 April)

Event Time Altitude Azimuth Distance (km) Brightness Sun altitude
Rises 17:14:02 0° 149° (SSE) 2,972 6.7 -8.1°
Reaches altitude 10° 17:16:17 10° 144° (SE) 2,070 5.9 -8.5°
Maximum altitude 17:20:39 51° 69° (ENE) 836 3.9 -9.1°
Drops below altitude 10° 17:25:06 10° 354° (N) 2,107 6.4 -9.8°
Sets 17:27:24 0° 350° (N) 3,032 7.3 -10.2°
